Time,TemperatureF,DewpointF,PressureIn,WindDirection,WindDirectionDegrees,WindSpeedMPH,WindSpeedGustMPH,Humidity,HourlyPrecipIn,Conditions,Clouds,dailyrainin,SolarRadiationWatts/m^2,SoftwareType,DateUTC
2013-04-03 00:03:00,57.0,48.0,-100.00,West,275,7.0,13.0,71,0.00,,,0.00,0.000000,,2013-04-03 04:03:00,
2013-04-03 00:33:00,55.0,47.0,-100.00,WNW,282,6.0,13.0,75,0.00,,,0.00,0.000000,,2013-04-03 04:33:00,
2013-04-03 00:43:00,55.0,47.0,-100.00,WNW,282,6.0,13.0,75,0.00,,,0.00,0.000000,,2013-04-03 04:43:00,
2013-04-03 00:53:00,55.0,47.0,-100.00,WNW,282,6.0,13.0,75,0.00,,,0.00,0.000000,,2013-04-03 04:53:00,
2013-04-03 01:03:00,55.0,47.0,-100.00,WNW,282,6.0,13.0,75,0.00,,,0.00,0.000000,,2013-04-03 05:03:00,
2013-04-03 01:33:00,54.0,48.0,-100.00,WNW,289,5.0,10.0,79,0.00,,,0.00,0.000000,,2013-04-03 05:33:00,
2013-04-03 01:42:00,54.0,48.0,-100.00,WNW,289,5.0,10.0,79,0.00,,,0.00,0.000000,,2013-04-03 05:42:00,
2013-04-03 01:53:00,54.0,48.0,-100.00,WNW,289,5.0,10.0,79,0.00,,,0.00,0.000000,,2013-04-03 05:53:00,
2013-04-03 02:03:00,54.0,48.0,-100.00,WNW,289,5.0,10.0,79,0.00,,,0.00,0.000000,,2013-04-03 06:03:00,
2013-04-03 02:32:00,54.0,49.0,-100.00,WNW,286,3.0,7.0,82,0.00,,,0.00,0.000000,,2013-04-03 06:32:00,
2013-04-03 02:42:00,54.0,49.0,-100.00,WNW,286,3.0,7.0,82,0.00,,,0.00,0.000000,,2013-04-03 06:42:00,
2013-04-03 02:52:00,54.0,49.0,-100.00,WNW,286,3.0,7.0,82,0.00,,,0.00,0.000000,,2013-04-03 06:52:00,
2013-04-03 03:02:00,54.0,49.0,-100.00,WNW,286,3.0,7.0,82,0.00,,,0.00,0.000000,,2013-04-03 07:02:00,
2013-04-03 03:33:00,50.0,48.0,-100.00,West,279,2.0,5.0,93,0.00,,,-99.99,0.000000,,2013-04-03 07:33:00,
2013-04-03 03:43:00,50.0,48.0,-100.00,West,279,2.0,5.0,93,0.00,,,-99.99,0.000000,,2013-04-03 07:43:00,
2013-04-03 03:53:00,50.0,48.0,-100.00,West,279,2.0,5.0,93,0.00,,,-99.99,0.000000,,2013-04-03 07:53:00,
2013-04-03 04:03:00,50.0,48.0,-100.00,West,279,2.0,5.0,93,0.00,,,-99.99,0.000000,,2013-04-03 08:03:00,
2013-04-03 04:33:00,47.0,46.0,-100.00,ESE,119,3.0,5.0,97,0.00,,,0.00,0.000000,,2013-04-03 08:33:00,
2013-04-03 04:43:00,47.0,46.0,-100.00,ESE,119,3.0,5.0,97,0.00,,,0.00,0.000000,,2013-04-03 08:43:00,
2013-04-03 04:52:00,47.0,46.0,-100.00,ESE,119,3.0,5.0,97,0.00,,,0.00,0.000000,,2013-04-03 08:52:00,
2013-04-03 05:02:00,47.0,46.0,-100.00,ESE,119,3.0,5.0,97,0.00,,,0.00,0.000000,,2013-04-03 09:02:00,
2013-04-03 05:33:00,46.0,45.0,-100.00,ESE,114,3.0,7.0,98,0.00,,,0.00,0.000000,,2013-04-03 09:33:00,
2013-04-03 05:43:00,46.0,45.0,-100.00,ESE,114,3.0,7.0,98,0.00,,,0.00,0.000000,,2013-04-03 09:43:00,
2013-04-03 05:53:00,46.0,45.0,-100.00,ESE,114,3.0,7.0,98,0.00,,,0.00,0.000000,,2013-04-03 09:53:00,
2013-04-03 06:03:00,46.0,45.0,-100.00,ESE,114,3.0,7.0,98,0.00,,,0.00,0.000000,,2013-04-03 10:03:00,
2013-04-03 06:33:00,46.0,45.0,-100.00,SE,125,5.0,10.0,98,0.00,,,0.00,0.000000,,2013-04-03 10:33:00,
2013-04-03 06:43:00,46.0,45.0,-100.00,SE,125,5.0,10.0,98,0.00,,,0.00,0.000000,,2013-04-03 10:43:00,
2013-04-03 06:53:00,46.0,45.0,-100.00,SE,125,5.0,10.0,98,0.00,,,0.00,0.000000,,2013-04-03 10:53:00,
2013-04-03 07:02:00,46.0,45.0,-100.00,SE,125,5.0,10.0,98,0.00,,,0.00,0.000000,,2013-04-03 11:02:00,
2013-04-03 07:33:00,45.0,44.0,-100.00,SE,129,5.0,9.0,96,0.00,,,0.00,0.000000,,2013-04-03 11:33:00,
2013-04-03 07:42:00,45.0,44.0,-100.00,SE,129,5.0,9.0,96,0.00,,,0.00,0.000000,,2013-04-03 11:42:00,
2013-04-03 07:53:00,45.0,44.0,-100.00,SE,129,5.0,9.0,96,0.00,,,0.00,0.000000,,2013-04-03 11:53:00,
2013-04-03 08:02:00,45.0,44.0,-100.00,SE,129,5.0,9.0,96,0.00,,,0.00,0.000000,,2013-04-03 12:02:00,
2013-04-03 08:33:00,47.0,40.0,-100.00,SE,140,6.0,11.0,76,0.00,,,-99.99,29.000000,,2013-04-03 12:33:00,
2013-04-03 08:42:00,47.0,40.0,-100.00,SE,140,6.0,11.0,76,0.00,,,-99.99,29.000000,,2013-04-03 12:42:00,
2013-04-03 08:52:00,47.0,40.0,-100.00,SE,140,6.0,11.0,76,0.00,,,-99.99,29.000000,,2013-04-03 12:52:00,
2013-04-03 09:02:00,47.0,40.0,-100.00,SE,140,6.0,11.0,76,0.00,,,-99.99,29.000000,,2013-04-03 13:02:00,
2013-04-03 09:32:00,52.0,32.0,-100.00,SE,143,11.0,17.0,47,0.00,,,0.00,115.000000,,2013-04-03 13:32:00,
2013-04-03 09:42:00,52.0,32.0,-100.00,SE,143,11.0,17.0,47,0.00,,,0.00,115.000000,,2013-04-03 13:42:00,
2013-04-03 09:52:00,52.0,32.0,-100.00,SE,143,11.0,17.0,47,0.00,,,0.00,115.000000,,2013-04-03 13:52:00,
2013-04-03 10:02:00,52.0,32.0,-100.00,SE,143,11.0,17.0,47,0.00,,,0.00,115.000000,,2013-04-03 14:02:00,
2013-04-03 10:32:00,54.0,29.0,-100.00,SSE,151,11.0,21.0,38,0.00,,,0.00,231.000000,,2013-04-03 14:32:00,
2013-04-03 10:43:00,54.0,29.0,-100.00,SSE,151,11.0,21.0,38,0.00,,,0.00,231.000000,,2013-04-03 14:43:00,
2013-04-03 10:52:00,54.0,29.0,-100.00,SSE,151,11.0,21.0,38,0.00,,,0.00,231.000000,,2013-04-03 14:52:00,
2013-04-03 11:02:00,54.0,29.0,-100.00,SSE,151,11.0,21.0,38,0.00,,,0.00,231.000000,,2013-04-03 15:02:00,
2013-04-03 11:33:00,58.0,28.0,-100.00,SSE,153,10.0,20.0,31,0.00,,,0.00,475.000000,,2013-04-03 15:33:00,
2013-04-03 11:43:00,58.0,28.0,-100.00,SSE,153,10.0,20.0,31,0.00,,,0.00,475.000000,,2013-04-03 15:43:00,
2013-04-03 11:53:00,58.0,28.0,-100.00,SSE,153,10.0,20.0,31,0.00,,,0.00,475.000000,,2013-04-03 15:53:00,
2013-04-03 12:33:00,59.0,25.0,-100.00,SSE,155,9.0,16.0,27,0.00,,,0.00,568.000000,,2013-04-03 16:33:00,
2013-04-03 12:44:00,59.0,25.0,-100.00,SSE,155,9.0,16.0,27,0.00,,,0.00,568.000000,,2013-04-03 16:44:00,
2013-04-03 12:53:00,59.0,25.0,-100.00,SSE,155,9.0,16.0,27,0.00,,,0.00,568.000000,,2013-04-03 16:53:00,
2013-04-03 13:03:00,59.0,25.0,-100.00,SSE,155,9.0,16.0,27,0.00,,,0.00,568.000000,,2013-04-03 17:03:00,
2013-04-03 13:35:00,63.0,28.0,-100.00,SSE,161,7.0,18.0,26,0.00,,,0.00,759.000000,,2013-04-03 17:35:00,
2013-04-03 13:47:00,63.0,28.0,-100.00,SSE,161,7.0,18.0,26,0.00,,,0.00,759.000000,,2013-04-03 17:47:00,
2013-04-03 13:54:00,63.0,28.0,-100.00,SSE,161,7.0,18.0,26,0.00,,,0.00,759.000000,,2013-04-03 17:54:00,
2013-04-03 14:02:00,63.0,28.0,-100.00,SSE,161,7.0,18.0,26,0.00,,,0.00,759.000000,,2013-04-03 18:02:00,
2013-04-03 14:34:00,64.0,29.0,-100.00,SE,144,6.0,16.0,27,0.00,,,0.00,820.000000,,2013-04-03 18:34:00,
2013-04-03 14:43:00,64.0,29.0,-100.00,SE,144,6.0,16.0,27,0.00,,,0.00,820.000000,,2013-04-03 18:43:00,
2013-04-03 14:52:00,64.0,29.0,-100.00,SE,144,6.0,16.0,27,0.00,,,0.00,820.000000,,2013-04-03 18:52:00,
2013-04-03 15:03:00,64.0,29.0,-100.00,SE,144,6.0,16.0,27,0.00,,,0.00,820.000000,,2013-04-03 19:03:00,
2013-04-03 15:32:00,64.0,30.0,-100.00,South,185,7.0,15.0,28,0.00,,,0.00,590.000000,,2013-04-03 19:32:00,
2013-04-03 15:42:00,64.0,30.0,-100.00,South,185,7.0,15.0,28,0.00,,,0.00,590.000000,,2013-04-03 19:42:00,
2013-04-03 15:52:00,64.0,30.0,-100.00,South,185,7.0,15.0,28,0.00,,,0.00,590.000000,,2013-04-03 19:52:00,
2013-04-03 16:02:00,64.0,30.0,-100.00,South,185,7.0,15.0,28,0.00,,,0.00,590.000000,,2013-04-03 20:02:00,
2013-04-03 16:33:00,64.0,31.0,-100.00,SE,136,6.0,13.0,29,0.00,,,0.00,495.000000,,2013-04-03 20:33:00,
2013-04-03 16:42:00,64.0,31.0,-100.00,SE,136,6.0,13.0,29,0.00,,,0.00,495.000000,,2013-04-03 20:42:00,
2013-04-03 17:03:00,64.0,31.0,-100.00,SE,136,6.0,13.0,29,0.00,,,0.00,495.000000,,2013-04-03 21:03:00,
2013-04-03 17:33:00,63.0,31.0,-100.00,SSE,153,5.0,14.0,30,0.00,,,-99.99,320.000000,,2013-04-03 21:33:00,
2013-04-03 17:42:00,63.0,31.0,-100.00,SSE,153,5.0,14.0,30,0.00,,,-99.99,320.000000,,2013-04-03 21:42:00,
2013-04-03 17:52:00,63.0,31.0,-100.00,SSE,153,5.0,14.0,30,0.00,,,-99.99,320.000000,,2013-04-03 21:52:00,
2013-04-03 18:02:00,63.0,31.0,-100.00,SSE,153,5.0,14.0,30,0.00,,,-99.99,320.000000,,2013-04-03 22:02:00,
2013-04-03 18:33:00,61.0,32.0,-100.00,SSE,157,5.0,12.0,33,0.00,,,0.00,154.000000,,2013-04-03 22:33:00,
2013-04-03 18:42:00,61.0,32.0,-100.00,SSE,157,5.0,12.0,33,0.00,,,0.00,154.000000,,2013-04-03 22:42:00,
2013-04-03 18:53:00,61.0,32.0,-100.00,SSE,157,5.0,12.0,33,0.00,,,0.00,154.000000,,2013-04-03 22:53:00,
2013-04-03 19:02:00,61.0,32.0,-100.00,SSE,157,5.0,12.0,33,0.00,,,0.00,154.000000,,2013-04-03 23:02:00,
2013-04-03 19:33:00,58.0,33.0,-100.00,South,183,4.0,9.0,38,0.00,,,0.00,62.000000,,2013-04-03 23:33:00,
2013-04-03 19:43:00,58.0,33.0,-100.00,South,183,4.0,9.0,38,0.00,,,0.00,62.000000,,2013-04-03 23:43:00,
2013-04-03 19:55:00,58.0,33.0,-100.00,South,183,4.0,9.0,38,0.00,,,0.00,62.000000,,2013-04-03 23:55:00,
2013-04-03 20:03:00,58.0,33.0,-100.00,South,183,4.0,9.0,38,0.00,,,0.00,62.000000,,2013-04-04 00:03:00,
2013-04-03 20:32:00,55.0,34.0,-100.00,South,182,5.0,7.0,45,0.00,,,0.00,8.000000,,2013-04-04 00:32:00,
2013-04-03 20:43:00,55.0,34.0,-100.00,South,182,5.0,7.0,45,0.00,,,0.00,8.000000,,2013-04-04 00:43:00,
2013-04-03 20:52:00,55.0,34.0,-100.00,South,182,5.0,7.0,45,0.00,,,0.00,8.000000,,2013-04-04 00:52:00,
2013-04-03 21:02:00,55.0,34.0,-100.00,South,182,5.0,7.0,45,0.00,,,0.00,8.000000,,2013-04-04 01:02:00,
2013-04-03 21:32:00,55.0,36.0,-100.00,South,173,5.0,7.0,48,0.00,,,0.00,0.000000,,2013-04-04 01:32:00,
2013-04-03 21:43:00,55.0,36.0,-100.00,South,173,5.0,7.0,48,0.00,,,0.00,0.000000,,2013-04-04 01:43:00,
2013-04-03 21:53:00,55.0,36.0,-100.00,South,173,5.0,7.0,48,0.00,,,0.00,0.000000,,2013-04-04 01:53:00,
2013-04-03 22:02:00,55.0,36.0,-100.00,South,173,5.0,7.0,48,0.00,,,0.00,0.000000,,2013-04-04 02:02:00,
2013-04-03 22:32:00,55.0,34.0,-100.00,South,175,4.0,7.0,45,0.00,,,0.00,0.000000,,2013-04-04 02:32:00,
2013-04-03 22:42:00,55.0,34.0,-100.00,South,175,4.0,7.0,45,0.00,,,0.00,0.000000,,2013-04-04 02:42:00,
2013-04-03 22:53:00,55.0,34.0,-100.00,South,175,4.0,7.0,45,0.00,,,0.00,0.000000,,2013-04-04 02:53:00,
2013-04-03 23:02:00,55.0,34.0,-100.00,South,175,4.0,7.0,45,0.00,,,0.00,0.000000,,2013-04-04 03:02:00,
2013-04-03 23:45:00,53.0,37.0,-100.00,SSW,202,3.0,6.0,54,0.00,,,0.00,0.000000,,2013-04-04 03:45:00,
2013-04-03 23:53:00,53.0,37.0,-100.00,SSW,202,3.0,6.0,54,0.00,,,0.00,0.000000,,2013-04-04 03:53:00,